This is the latest recevied weather packets stored in our database for station/object K1LBG. If no packets are shown the sender has not sent any weather packets the latest 10 day(s).
| Time | Temp. | Humidity | Pressure | Rain* | Wind** | Luminosity | Snow |
|---|---|---|---|---|---|---|---|
| 1777524691 | 7.22° C | 94% | 1010 hPa | 0 mm | - | - | - |
| 1777524122 | 7.22° C | 94% | 1010.2 hPa | 0 mm | - | - | - |
| 1777521417 | 7.22° C | 94% | 1011 hPa | 0 mm | - | - | - |
| 1777520183 | 7.22° C | 94% | 1010.6 hPa | 0 mm | - | - | - |
| 1777519284 | 7.22° C | 93% | 1011.1 hPa | 0 mm | - | - | - |
| 1777518686 | 7.22° C | 93% | 1011.2 hPa | 0 mm | - | - | - |
| 1777518099 | 7.22° C | 93% | 1011.3 hPa | 0 mm | - | - | - |
| 1777517787 | 7.22° C | 93% | 1011.6 hPa | 0 mm | - | - | - |
| 1777510296 | 7.78° C | 90% | 1012.3 hPa | 0 mm | - | - | - |
| 1777506094 | 8.33° C | 87% | 1012.5 hPa | 0 mm | - | - | - |
| 1777504615 | 8.89° C | 86% | 1012.3 hPa | 0 mm | - | - | - |
| 1777501885 | 10° C | 82% | 1012.5 hPa | 0 mm | - | - | - |
| 1777501614 | 10° C | 82% | 1012.4 hPa | 0 mm | - | - | - |
| 1777500400 | 11.11° C | 80% | 1012.6 hPa | 0 mm | - | - | - |
| 1777498892 | 11.11° C | 79% | 1012.8 hPa | 0 mm | - | - | - |
| 1777497688 | 11.67° C | 80% | 1013 hPa | 0 mm | - | - | - |
| 1777496535 | 12.22° C | 77% | 1012.7 hPa | 0 mm | - | - | - |
| 1777494712 | 12.78° C | 75% | 1012.6 hPa | 0 mm | - | - | - |
| 1777494114 | 13.33° C | 75% | 1012.7 hPa | 0 mm | - | - | - |
| 1777492916 | 13.33° C | 74% | 1013.1 hPa | 0 mm | - | - | - |
| 1777492332 | 13.89° C | 72% | 1013.3 hPa | 0 mm | - | - | - |
| 1777491716 | 14.44° C | 71% | 1013.5 hPa | 0 mm | - | - | - |
| 1777488100 | 15° C | 73% | 1014.3 hPa | 0 mm | - | - | - |
| 1777486316 | 14.44° C | 70% | 1014.3 hPa | 0 mm | - | - | - |
| 1777485988 | 14.44° C | 73% | 1014.5 hPa | 0 mm | - | - | - |
* Rain latest hour (hover to see other rain measurements)
** Current wind speed in m/s (hover to see current wind gust speed)